[[{"header":{"parameterUnit":"m.s-1","parameterCategory":2,"la1":30.2991,"la2":30.254,"lo1":-89.0895,"lo2":-89.0444,"dy":0.0017,"dx":0.0017,"nx":28,"ny":28,"refTime":"2023-05-26T21:00:00:Z","depth":"0","parameterNumber":2,"parameterNumberName":"U-component_of_CURRENTS"},"data":[0,0,0,0,0,0,0,0,0,0,0,0,0,0,0,0,0,0,0,0,0,0,0,0,0,0,0,0,0,0,0,0,0,0,0,0,0,0,0,0,0,0,0,0,0,0,0,0,0,0,0,0,0,0,0,0,0,0,0.234,0.234,0,0.2372,0.2372,0.2373,0.2385,0.2385,0.2385,0.2384,0.2394,0.2395,0.2395,0,0,0,0,0,0,0,0,0,0,0,0,0,0.2291,0.2292,0.234,0.234,0.234,0.2372,0.2372,0.2373,0.2385,0.2385,0.2385,0.2384,0.2394,0.2394,0.2395,0,0,0,0,0,0,0,0,0,0,0,0,0,0.2317,0.2292,0.234,0.235,0.2351,0.2372,0.2372,0.2373,0.2385,0.2385,0.2385,0.2384,0.2394,0.2394,0.2395,0.2404,0,0,0.2397,0.2397,0,0,0,0,0,0,0,0,0.2316,0.2319,0.2348,0.2349,0.235,0.2374,0.2359,0.2382,0.2385,0.2373,0.2384,0.2384,0.2385,0.2386,0.2394,0.2404,0.2405,0.2397,0.2397,0.2398,0.2398,0,0,0,0,0,0,0,0.2314,0.2318,0.2353,0.2348,0.235,0.2353,0.2357,0.2363,0.238,0.2374,0.2375,0.2377,0.2385,0.2394,0.2394,0.2405,0.2397,0.2398,0.2398,0.2398,0.2476,0.2478,0,0,0,0,0,0,0.2309,0.2316,0.2352,0.2354,0.2331,0.2354,0.2358,0.2367,0.238,0.2382,0.2377,0.2378,0.2393,0.2394,0.2395,0.2451,0.2398,0.2398,0.2399,0.2474,0.2477,0.2478,0,0,0,0,0,0,0.2308,0.2312,0.2351,0.2335,0.234,0.2355,0.2365,0.2368,0.2377,0.2383,0.2385,0.2383,0.2393,0.2394,0.2419,0.2449,0.2398,0.2399,0.2472,0.2475,0.2477,0.2533,0,0,0,0,0,0,0.2307,0.2312,0.2319,0.2335,0.2341,0.2376,0.2365,0.2368,0.2378,0.2379,0.2389,0.239,0.2392,0.2418,0.242,0.2449,0.24,0.247,0.2474,0.2477,0.2529,0.2538,0.2545,0,0,0,0,0,0.2305,0.2317,0.232,0.2324,0.235,0.2377,0.2381,0.2391,0.2379,0.2395,0.2404,0.2389,0.244,0.242,0.2421,0.2452,0.2469,0.2473,0.2476,0.2526,0.2536,0.2544,0,0,0,0,0,0,0.2297,0.232,0.2323,0.2341,0.2362,0.2379,0.2393,0.2392,0.241,0.2409,0.2407,0.241,0.2446,0.2441,0.2419,0.2485,0.2453,0.2458,0.2491,0.25,0.2507,0.2495,0.24,0,0,0,0,0,0.2299,0.2317,0.2338,0.2353,0.2365,0.2377,0.2387,0.2394,0.241,0.2417,0.2425,0.2439,0.2464,0.2473,0.2492,0.2521,0.2545,0.2544,0.2551,0.2558,0.255,0.2598,0.2609,0.2491,0.2491,0.2491,0,0,0.2296,0.2313,0.2321,0.2353,0.2368,0.2401,0.2384,0.2406,0.2433,0.2415,0.2454,0.2464,0.2478,0.2521,0.2536,0.2519,0.2619,0.2563,0.2568,0.2557,0.2603,0.2614,0.2624,0.2494,0.2493,0.2493,0,0,0.2318,0.2321,0.2354,0.2376,0.2406,0.2415,0.2421,0.2445,0.2458,0.2495,0.2495,0.2516,0.2552,0.2569,0.2582,0.2637,0.2658,0.2652,0.2679,0.2726,0.2736,0.2744,0.2852,0.287,0.2655,0.2655,0.2655,0,0.2321,0.236,0.2366,0.2409,0.2427,0.2423,0.2462,0.248,0.2508,0.2525,0.2517,0.2572,0.2575,0.2626,0.2648,0.2653,0.2705,0.2642,0.2735,0.2744,0.2752,0.286,0.2878,0.2658,0.2658,0.2657,0.2657,0,0.2376,0.2407,0.2427,0.2479,0.2498,0.2527,0.2549,0.2571,0.2575,0.2592,0.2639,0.2648,0.2679,0.269,0.2684,0.2746,0.278,0.2741,0.2709,0.2767,0.2878,0.2897,0.2663,0.2662,0.2661,0.266,0,0,0.2411,0.2455,0.2467,0.2497,0.2534,0.2557,0.2598,0.2639,0.2669,0.2691,0.2743,0.2764,0.2757,0.277,0.277,0.2797,0.2912,0.2794,0.2796,0.2899,0.3079,0.3129,0.3155,0.2893,0.2895,0.2897,0.3157,0,0.2464,0.2531,0.2541,0.2606,0.2647,0.2648,0.2686,0.2716,0.2739,0.2791,0.2795,0.2845,0.2795,0.2822,0.284,0.2893,0.2953,0.2848,0.3009,0.3015,0.3048,0.3173,0.3038,0.3259,0.3175,0.3178,0.318,0,0.2548,0.2574,0.263,0.2673,0.269,0.272,0.2768,0.2802,0.2856,0.2879,0.291,0.2926,0.2984,0.2926,0.304,0.2983,0.3037,0.3068,0.3078,0.3106,0.3097,0.3175,0.3295,0.3126,0.3209,0.3206,0.3204,0,0.2601,0.2655,0.2688,0.2705,0.2742,0.2767,0.2788,0.2832,0.2871,0.2947,0.2997,0.3043,0.3106,0.3144,0.3208,0.3142,0.3353,0.3272,0.3379,0.3386,0.329,0.3284,0.3249,0.3361,0.336,0.336,0.3359,0,0.2677,0.2719,0.271,0.274,0.278,0.28,0.2856,0.2887,0.2949,0.3007,0.3045,0.3119,0.3159,0.3272,0.3291,0.343,0.3434,0.3424,0.3456,0.3315,0.3308,0.3168,0.3091,0.3369,0.3367,0.3365,0.3364,0,0.2751,0.2748,0.2796,0.281,0.2814,0.2848,0.2893,0.2929,0.2995,0.3083,0.312,0.3233,0.3385,0.3459,0.358,0.3574,0.3569,0.3715,0.3586,0.3596,0.3492,0.3425,0.3391,0.3293,0.3874,0.3877,0.3879,0,0.2786,0.2812,0.283,0.2837,0.2843,0.288,0.2897,0.295,0.2985,0.3144,0.3188,0.3387,0.3496,0.3742,0.3796,0.3923,0.3708,0.3852,0.3666,0.3509,0.3457,0.3295,0.3199,0.3597,0.3597,0.3597,0.3596,0,0.2832,0.2835,0.2848,0.286,0.2875,0.2894,0.2926,0.296,0.3028,0.3118,0.325,0.337,0.3641,0.3719,0.3918,0.3941,0.3632,0.3855,0.3691,0.3255,0.3074,0.2986,0.345,0.3595,0.3595,0.3596,0.3596,0.3596,0.2837,0.2848,0.2843,0.2854,0.2868,0.2869,0.2862,0.2907,0.2964,0.3055,0.3227,0.3363,0.3536,0.3797,0.3805,0.371,0.3699,0.3553,0.3507,0.3373,0.3185,0.3698,0.3863,0.3865,0.3866,0.3867,0.3868,0,0.2799,0.2806,0.2825,0.2812,0.2799,0.2825,0.2833,0.2802,0.2823,0.2983,0.3097,0.3254,0.3353,0.343,0.3455,0.3339,0.3145,0.3221,0.2885,0.2823,0.3281,0.3167,0.3187,0.3187,0.3187,0.3187,0.3188,0.3188,0.2771,0.2759,0.2765,0.2716,0.271,0.2642,0.2625,0.261,0.267,0.2736,0.2819,0.2953,0.3081,0.3102,0.2969,0.2903,0.2618,0.2576,0.2544,0.2769,0.2791,0.2812,0.2681,0.2599,0.2599,0.1935,0.1929,0.1926]},{"header":{"parameterUnit":"m.s-1","parameterCategory":2,"la1":30.2991,"la2":30.254,"lo1":-89.0895,"lo2":-89.0444,"dy":0.0017,"dx":0.0017,"nx":28,"ny":28,"refTime":"2023-05-26T21:00:00:Z","depth":"0","parameterNumber":3,"parameterNumberName":"V-component_of_CURRENTS"},"data":[0,0,0,0,0,0,0,0,0,0,0,0,0,0,0,0,0,0,0,0,0,0,0,0,0,0,0,0,0,0,0,0,0,0,0,0,0,0,0,0,0,0,0,0,0,0,0,0,0,0,0,0,0,0,0,0,0,0,-0.0305,-0.0305,0,-0.0346,-0.0346,-0.0347,-0.0394,-0.0395,-0.0395,-0.0396,-0.0546,-0.055,-0.0553,0,0,0,0,0,0,0,0,0,0,0,0,0,-0.031,-0.0309,-0.0305,-0.0305,-0.0306,-0.0345,-0.0346,-0.0347,-0.0394,-0.0395,-0.0396,-0.0396,-0.0545,-0.0549,-0.0553,0,0,0,0,0,0,0,0,0,0,0,0,0,-0.0326,-0.0309,-0.0305,-0.0333,-0.0336,-0.0345,-0.0346,-0.0347,-0.0394,-0.0395,-0.0396,-0.0397,-0.0544,-0.0549,-0.0554,-0.0567,0,0,-0.057,-0.0572,0,0,0,0,0,0,0,0,-0.0325,-0.0325,-0.0329,-0.0331,-0.0335,-0.0365,-0.0403,-0.0426,-0.0394,-0.0373,-0.0396,-0.0397,-0.0494,-0.0504,-0.0509,-0.0574,-0.058,-0.057,-0.0573,-0.0575,-0.0577,0,0,0,0,0,0,0,-0.0323,-0.0324,-0.0322,-0.0329,-0.0333,-0.0358,-0.0361,-0.0407,-0.0431,-0.0375,-0.0378,-0.0381,-0.0497,-0.0504,-0.0513,-0.0582,-0.057,-0.0574,-0.0578,-0.058,-0.0724,-0.0725,0,0,0,0,0,0,-0.0313,-0.0323,-0.0321,-0.0323,-0.0331,-0.0357,-0.0361,-0.0355,-0.0428,-0.0439,-0.038,-0.0383,-0.0495,-0.0507,-0.0519,-0.0562,-0.0575,-0.058,-0.0583,-0.0724,-0.0725,-0.0725,0,0,0,0,0,0,-0.0312,-0.0312,-0.0319,-0.0324,-0.0326,-0.0356,-0.0349,-0.0355,-0.0363,-0.043,-0.0444,-0.0382,-0.0496,-0.0512,-0.0569,-0.0567,-0.0582,-0.0587,-0.0723,-0.0724,-0.0725,-0.0633,0,0,0,0,0,0,-0.0312,-0.0311,-0.0304,-0.0323,-0.0326,-0.0322,-0.0348,-0.0355,-0.0363,-0.0367,-0.0436,-0.0451,-0.0498,-0.0561,-0.0574,-0.0575,-0.0591,-0.0722,-0.0723,-0.0725,-0.0635,-0.0631,-0.0627,0,0,0,0,0,-0.0312,-0.0295,-0.0303,-0.0303,-0.0314,-0.0322,-0.0326,-0.0351,-0.0362,-0.0362,-0.0417,-0.0449,-0.058,-0.0566,-0.0581,-0.0583,-0.0721,-0.0723,-0.0725,-0.0637,-0.0632,-0.0627,0,0,0,0,0,0,-0.0282,-0.0298,-0.0308,-0.0293,-0.0306,-0.033,-0.0331,-0.0344,-0.0383,-0.0393,-0.0455,-0.0474,-0.0524,-0.0571,-0.0553,-0.0633,-0.0657,-0.0662,-0.0586,-0.0581,-0.0578,-0.0538,-0.0595,0,0,0,0,0,-0.0273,-0.027,-0.0287,-0.0274,-0.0282,-0.0304,-0.031,-0.0325,-0.036,-0.0376,-0.0423,-0.0485,-0.0542,-0.0574,-0.063,-0.0668,-0.0673,-0.0684,-0.0679,-0.0676,-0.0656,-0.0661,-0.0654,-0.0731,-0.0731,-0.0731,0,0,-0.0256,-0.0264,-0.0261,-0.0269,-0.0283,-0.029,-0.0311,-0.0316,-0.0322,-0.0389,-0.0417,-0.0472,-0.055,-0.0596,-0.0623,-0.0634,-0.0657,-0.0678,-0.0673,-0.0656,-0.0662,-0.0654,-0.0647,-0.0732,-0.0732,-0.0732,0,0,-0.0229,-0.023,-0.0228,-0.0239,-0.0257,-0.0271,-0.027,-0.0293,-0.0307,-0.034,-0.0393,-0.0439,-0.0524,-0.0569,-0.0607,-0.0616,-0.0635,-0.0645,-0.0591,-0.0596,-0.0588,-0.0581,-0.0562,-0.0555,-0.0643,-0.0642,-0.0642,0,-0.0213,-0.0205,-0.0226,-0.0231,-0.0233,-0.0261,-0.0256,-0.0274,-0.0312,-0.0314,-0.0345,-0.0442,-0.0508,-0.0552,-0.056,-0.0603,-0.0599,-0.0595,-0.0585,-0.0579,-0.0573,-0.0556,-0.0549,-0.0638,-0.0639,-0.0639,-0.064,0,-0.0192,-0.0188,-0.0185,-0.0202,-0.0208,-0.0204,-0.0231,-0.0232,-0.0252,-0.0272,-0.0309,-0.0388,-0.044,-0.0476,-0.0524,-0.0527,-0.0532,-0.0573,-0.0582,-0.0559,-0.0544,-0.0537,-0.0632,-0.0634,-0.0635,-0.0636,0,0,-0.0164,-0.0168,-0.0169,-0.0161,-0.0188,-0.0181,-0.0188,-0.0191,-0.0174,-0.0227,-0.0212,-0.0313,-0.0337,-0.0382,-0.0442,-0.0451,-0.0416,-0.0487,-0.049,-0.0441,-0.0398,-0.0372,-0.0363,-0.0447,-0.0446,-0.0445,-0.0395,0,-0.0145,-0.0118,-0.0139,-0.012,-0.0109,-0.013,-0.0124,-0.0131,-0.0147,-0.0141,-0.0208,-0.0232,-0.031,-0.0323,-0.0347,-0.0403,-0.0399,-0.0424,-0.0452,-0.0452,-0.0409,-0.0356,-0.0328,-0.0279,-0.0389,-0.0388,-0.0387,0,-0.0134,-0.011,-0.0069,-0.0053,-0.0051,-0.0043,-0.0012,-0.0014,-0.0024,-0.0032,-0.0063,-0.0114,-0.015,-0.0214,-0.027,-0.0278,-0.0322,-0.0361,-0.0361,-0.0361,-0.0415,-0.0327,-0.0264,-0.0431,-0.0378,-0.0379,-0.038,0,-0.0086,-0.0072,-0.002,-0.0017,-0.0,0.0021,0.0026,0.0028,0.0049,0.0047,0.0072,0.0003,-0.0004,-0.0081,-0.017,-0.0214,-0.0206,-0.0286,-0.0297,-0.0295,-0.0289,-0.0288,-0.0366,-0.0298,-0.0299,-0.0299,-0.0299,0,-0.0057,-0.0029,0.0015,0.0043,0.0102,0.0085,0.0141,0.0141,0.016,0.021,0.0137,0.0177,0.0035,0.0009,-0.0102,-0.0156,-0.0153,-0.0255,-0.0273,-0.0257,-0.0255,-0.0416,-0.0502,-0.0297,-0.0297,-0.0298,-0.0298,0,-0.0026,0.0004,0.0056,0.0106,0.0127,0.0167,0.0209,0.0252,0.027,0.0339,0.0349,0.0326,0.0309,0.0183,0.0086,-0.0038,-0.0182,-0.0136,-0.0091,-0.0104,-0.0303,-0.0383,-0.0425,-0.0489,-0.0151,-0.015,-0.0149,0,-0.0009,0.0034,0.0114,0.0153,0.0175,0.0235,0.0282,0.0306,0.0359,0.0443,0.0492,0.0507,0.0542,0.042,0.0231,0.0084,-0.0091,-0.0023,-0.012,-0.0276,-0.0381,-0.0443,-0.05,-0.0073,-0.0072,-0.0071,-0.007,0,0.002,0.006,0.0113,0.0205,0.0264,0.0336,0.0406,0.0471,0.053,0.0618,0.0738,0.0782,0.0701,0.0597,0.0395,0.0242,-0.0125,-0.0004,-0.0186,-0.0323,-0.0375,-0.0457,-0.0137,-0.0059,-0.006,-0.0061,-0.0062,-0.0062,0.0034,0.0079,0.0162,0.0241,0.032,0.0425,0.0493,0.0599,0.0726,0.0887,0.0927,0.1075,0.0894,0.0639,0.0406,-0.001,-0.0024,-0.0171,-0.0251,-0.0295,-0.0374,-0.001,0.0051,0.005,0.005,0.005,0.0049,0,0.0039,0.0102,0.0184,0.0288,0.0381,0.0423,0.0568,0.0662,0.0835,0.1056,0.1193,0.1271,0.0995,0.0661,0.0139,-0.0196,-0.0357,-0.0402,-0.0519,-0.0565,-0.0255,-0.0274,-0.0257,-0.0257,-0.0256,-0.0256,-0.0256,-0.0256,0.0044,0.0121,0.0173,0.0319,0.0399,0.0532,0.0619,0.0788,0.0976,0.1279,0.1475,0.1597,0.137,0.0392,-0.0331,-0.0522,-0.077,-0.0781,-0.0924,-0.0769,-0.0756,-0.0743,-0.0784,-0.0875,-0.0875,-0.1206,-0.121,-0.1212]}],[{"header":{"parameterUnit":"m.s-1","parameterCategory":2,"la1":30.2991,"la2":30.254,"lo1":-89.0895,"lo2":-89.0444,"dy":0.0017,"dx":0.0017,"nx":28,"ny":28,"refTime":"2023-05-26T21:00:00:Z","depth":"2","parameterNumber":2,"parameterNumberName":"U-component_of_CURRENTS"},"data":[0,0,0,0,0,0,0,0,0,0,0,0,0,0,0,0,0,0,0,0,0,0,0,0,0,0,0,0,0,0,0,0,0,0,0,0,0,0,0,0,0,0,0,0,0,0,0,0,0,0,0,0,0,0,0,0,0,0,0.2145,0.2145,0,0.2191,0.2191,0.2192,0.2223,0.2224,0.2224,0.2224,0.225,0.225,0.225,0,0,0,0,0,0,0,0,0,0,0,0,0,0.2092,0.2093,0.2145,0.2146,0.2146,0.2191,0.2191,0.2192,0.2223,0.2224,0.2224,0.2225,0.2249,0.225,0.225,0,0,0,0,0,0,0,0,0,0,0,0,0,0.2124,0.2093,0.2145,0.2168,0.217,0.2191,0.2191,0.2192,0.2223,0.2224,0.2224,0.2225,0.2249,0.225,0.225,0.2244,0,0,0.2252,0.2252,0,0,0,0,0,0,0,0,0.2122,0.2125,0.2164,0.2166,0.2169,0.2203,0.2182,0.2209,0.2223,0.2202,0.2224,0.2225,0.2232,0.2234,0.2241,0.2246,0.2247,0.2252,0.2252,0.2253,0.2253,0,0,0,0,0,0,0,0.212,0.2124,0.2162,0.2165,0.2168,0.2179,0.2184,0.2188,0.2213,0.2204,0.2207,0.2213,0.2233,0.224,0.2242,0.2247,0.2252,0.2253,0.2253,0.2253,0.2346,0.2348,0,0,0,0,0,0,0.2115,0.2122,0.2161,0.2164,0.2147,0.218,0.2185,0.2191,0.2213,0.2218,0.2213,0.2215,0.2239,0.2241,0.2243,0.2321,0.2253,0.2253,0.2254,0.2344,0.2346,0.2348,0,0,0,0,0,0,0.2113,0.2118,0.2159,0.2144,0.2151,0.218,0.2186,0.2191,0.221,0.222,0.2224,0.2227,0.2239,0.2242,0.2267,0.2319,0.2253,0.2254,0.2341,0.2344,0.2347,0.2423,0,0,0,0,0,0,0.2112,0.2117,0.2119,0.2144,0.2151,0.2185,0.2186,0.2192,0.2213,0.2216,0.2234,0.2236,0.224,0.2266,0.2268,0.2318,0.2254,0.2338,0.2342,0.2346,0.2418,0.2429,0.2438,0,0,0,0,0,0.211,0.2115,0.2119,0.2124,0.2153,0.2186,0.2191,0.2212,0.2213,0.2229,0.2244,0.2236,0.2293,0.2268,0.2269,0.2321,0.2336,0.2341,0.2346,0.2414,0.2426,0.2437,0,0,0,0,0,0,0.2093,0.2119,0.2124,0.2137,0.2164,0.2192,0.2209,0.2216,0.2239,0.2246,0.2248,0.2252,0.2304,0.2294,0.2266,0.2362,0.232,0.2325,0.2371,0.2383,0.2392,0.2384,0.2255,0,0,0,0,0,0.2089,0.2102,0.2129,0.2142,0.2158,0.2183,0.2197,0.2214,0.2237,0.2248,0.2262,0.2285,0.2322,0.2335,0.236,0.2393,0.24,0.2433,0.2443,0.2451,0.2447,0.2492,0.2505,0.2364,0.2364,0.2364,0,0,0.2093,0.2102,0.2115,0.214,0.2164,0.2202,0.2194,0.2227,0.2262,0.2246,0.2297,0.2317,0.2339,0.2395,0.2417,0.2393,0.2504,0.2458,0.2464,0.2455,0.2499,0.2512,0.2524,0.2367,0.2367,0.2366,0,0,0.2109,0.2113,0.2137,0.2184,0.2221,0.2217,0.2229,0.2266,0.2288,0.234,0.2346,0.2386,0.2437,0.2461,0.2482,0.2553,0.2557,0.2575,0.2614,0.2659,0.267,0.268,0.274,0.2754,0.2577,0.2577,0.2577,0,0.2114,0.2144,0.215,0.221,0.2242,0.2228,0.2274,0.2299,0.2339,0.2365,0.2373,0.2464,0.2475,0.2541,0.2574,0.2576,0.2605,0.2567,0.2671,0.268,0.269,0.2747,0.2763,0.2581,0.258,0.258,0.258,0,0.2174,0.221,0.2236,0.2288,0.2315,0.2356,0.2388,0.2403,0.2417,0.2457,0.2535,0.2559,0.2611,0.2635,0.2629,0.2704,0.2708,0.268,0.2637,0.2708,0.2765,0.278,0.2587,0.2586,0.2584,0.2583,0,0,0.2165,0.2252,0.2269,0.232,0.2366,0.2401,0.2431,0.2462,0.2507,0.2563,0.2639,0.27,0.2714,0.2735,0.2737,0.2769,0.2868,0.2754,0.2755,0.2808,0.299,0.2899,0.2905,0.2862,0.2864,0.2866,0.3016,0,0.2208,0.2306,0.2327,0.2422,0.2477,0.2486,0.2522,0.2564,0.2592,0.2664,0.2706,0.2795,0.2755,0.2801,0.2823,0.2861,0.2904,0.283,0.2917,0.292,0.2824,0.2918,0.2679,0.2783,0.3029,0.3032,0.3033,0,0.2291,0.2322,0.242,0.2498,0.2523,0.2572,0.2612,0.2656,0.2727,0.2768,0.2832,0.2877,0.2947,0.2907,0.2994,0.2953,0.2976,0.2995,0.3001,0.289,0.2853,0.2746,0.2799,0.3057,0.3055,0.3054,0.3052,0,0.2324,0.2411,0.247,0.2524,0.2591,0.2628,0.2643,0.2702,0.2764,0.2852,0.2934,0.2987,0.3075,0.3086,0.3128,0.3076,0.3232,0.3163,0.3104,0.31,0.2896,0.2868,0.3226,0.3226,0.3225,0.3225,0.3225,0,0.2404,0.2487,0.2505,0.2575,0.2645,0.2685,0.2776,0.2799,0.2877,0.2962,0.3011,0.3093,0.3128,0.3216,0.3194,0.3212,0.3291,0.313,0.3132,0.292,0.2893,0.3113,0.3098,0.3231,0.3229,0.3228,0.3227,0,0.2522,0.2545,0.2634,0.2668,0.2695,0.277,0.2871,0.29,0.2993,0.3102,0.315,0.3243,0.3319,0.3359,0.3414,0.3326,0.3333,0.3321,0.3079,0.3046,0.3151,0.3138,0.3246,0.3244,0.3243,0.3241,0.324,0,0.2585,0.2627,0.27,0.2716,0.2754,0.2847,0.2865,0.2958,0.2986,0.317,0.3202,0.3359,0.3352,0.3428,0.335,0.3316,0.3374,0.307,0.2889,0.3162,0.3154,0.3144,0.3134,0.268,0.2674,0.267,0.2666,0,0.2622,0.2663,0.2701,0.2729,0.277,0.2849,0.2896,0.2948,0.3027,0.3088,0.3128,0.3155,0.326,0.3091,0.3114,0.3049,0.3036,0.2969,0.3357,0.2691,0.2634,0.2624,0.2632,0.2624,0.2629,0.2632,0.2634,0.2636,0.2598,0.2626,0.2615,0.2683,0.2722,0.2753,0.2773,0.2763,0.2786,0.2765,0.2908,0.2828,0.2882,0.2724,0.267,0.2654,0.2817,0.2654,0.2666,0.2684,0.2571,0.2511,0.2461,0.2464,0.2467,0.2469,0.2471,0,0.2461,0.25,0.2518,0.2557,0.2554,0.2651,0.268,0.2588,0.2489,0.249,0.2432,0.2223,0.2158,0.2269,0.2166,0.2148,0.2108,0.2071,0.1999,0.2043,0.2081,0.1934,0.1657,0.1654,0.1651,0.1649,0,0,0.2373,0.2345,0.2381,0.234,0.2385,0.2348,0.2353,0.2179,0.212,0.1902,0.1835,0.1931,0.2118,0.1809,0.1811,0.172,0.185,0.1653,0.231,0.2264,0.2298,0.243,0.2255,0,0,0,0,0]},{"header":{"parameterUnit":"m.s-1","parameterCategory":2,"la1":30.2991,"la2":30.254,"lo1":-89.0895,"lo2":-89.0444,"dy":0.0017,"dx":0.0017,"nx":28,"ny":28,"refTime":"2023-05-26T21:00:00:Z","depth":"2","parameterNumber":3,"parameterNumberName":"V-component_of_CURRENTS"},"data":[0,0,0,0,0,0,0,0,0,0,0,0,0,0,0,0,0,0,0,0,0,0,0,0,0,0,0,0,0,0,0,0,0,0,0,0,0,0,0,0,0,0,0,0,0,0,0,0,0,0,0,0,0,0,0,0,0,0,0.0008,0.0008,0,-0.0032,-0.0032,-0.0032,-0.0074,-0.0074,-0.0075,-0.0076,-0.0105,-0.0105,-0.0105,0,0,0,0,0,0,0,0,0,0,0,0,0,0.0012,0.0012,0.0008,0.0008,0.0007,-0.0031,-0.0032,-0.0032,-0.0074,-0.0074,-0.0075,-0.0076,-0.0105,-0.0105,-0.0105,0,0,0,0,0,0,0,0,0,0,0,0,0,-0.0004,0.0013,0.0009,-0.0019,-0.0022,-0.0031,-0.0032,-0.0033,-0.0073,-0.0074,-0.0075,-0.0076,-0.0105,-0.0105,-0.0105,-0.0087,0,0,-0.0106,-0.0106,0,0,0,0,0,0,0,0,-0.0003,-0.0004,-0.0014,-0.0017,-0.002,-0.005,-0.0042,-0.005,-0.0073,-0.0053,-0.0076,-0.0077,-0.0085,-0.0087,-0.0091,-0.0088,-0.0089,-0.0106,-0.0106,-0.0106,-0.0106,0,0,0,0,0,0,0,-0.0002,-0.0003,-0.0006,-0.0015,-0.0018,-0.0042,-0.0045,-0.0044,-0.0062,-0.0055,-0.0058,-0.0064,-0.0087,-0.0091,-0.0092,-0.009,-0.0106,-0.0106,-0.0106,-0.0106,-0.0159,-0.016,0,0,0,0,0,0,0.0005,-0.0001,-0.0005,-0.0008,-0.0015,-0.0041,-0.0044,-0.0038,-0.0062,-0.0067,-0.0063,-0.0065,-0.009,-0.0092,-0.0093,-0.0105,-0.0106,-0.0106,-0.0107,-0.0157,-0.0159,-0.016,0,0,0,0,0,0,0.0005,0.0005,-0.0004,-0.0007,-0.001,-0.004,-0.0033,-0.0039,-0.0048,-0.0069,-0.0074,-0.0068,-0.0091,-0.0093,-0.008,-0.0105,-0.0106,-0.0107,-0.0156,-0.0158,-0.016,-0.0108,0,0,0,0,0,0,0.0006,0.0006,0.0015,-0.0006,-0.001,-0.0006,-0.0032,-0.0039,-0.005,-0.0054,-0.0074,-0.0078,-0.0092,-0.008,-0.008,-0.0106,-0.0107,-0.0154,-0.0157,-0.0159,-0.0108,-0.0108,-0.0108,0,0,0,0,0,0.0006,0.0023,0.0016,0.0016,0.0004,-0.0005,-0.0009,-0.0034,-0.005,-0.0047,-0.0053,-0.0077,-0.0098,-0.0078,-0.008,-0.0106,-0.0153,-0.0156,-0.0159,-0.0108,-0.0108,-0.0108,0,0,0,0,0,0,0.003,0.002,0.0012,0.0026,0.0012,-0.0013,-0.0014,-0.003,-0.0034,-0.0039,-0.0058,-0.0061,-0.0068,-0.0092,-0.0071,-0.0136,-0.0144,-0.0147,-0.0106,-0.0106,-0.0106,-0.0076,-0.0107,0,0,0,0,0,0.0042,0.005,0.0033,0.0044,0.0038,0.0013,0.0006,-0.0011,-0.002,-0.0025,-0.0039,-0.0065,-0.008,-0.0093,-0.0106,-0.0118,-0.0127,-0.0152,-0.0151,-0.0151,-0.0132,-0.0154,-0.0152,-0.017,-0.017,-0.0169,0,0,0.0047,0.0048,0.0049,0.0049,0.0035,0.0035,0.0007,-0.0003,0.0,-0.0025,-0.0021,-0.0047,-0.008,-0.0096,-0.0108,-0.0119,-0.0154,-0.0154,-0.0153,-0.0134,-0.0156,-0.0154,-0.0152,-0.0171,-0.0171,-0.0171,0,0,0.0078,0.007,0.0092,0.0069,0.0055,0.0051,0.005,0.0027,0.0019,0.0019,-0.0006,-0.0035,-0.0062,-0.009,-0.0109,-0.0116,-0.0141,-0.0149,-0.0128,-0.015,-0.0147,-0.0145,-0.0157,-0.0156,-0.0161,-0.0161,-0.0161,0,0.0086,0.0118,0.0094,0.0094,0.0084,0.0061,0.0072,0.0063,0.0047,0.0051,0.0021,-0.0027,-0.0062,-0.0077,-0.0093,-0.0114,-0.0121,-0.0118,-0.0145,-0.0143,-0.0142,-0.0154,-0.0154,-0.0159,-0.0159,-0.0159,-0.016,0,0.0119,0.0136,0.0141,0.0145,0.0129,0.0133,0.011,0.0115,0.01,0.0082,0.0063,0.0015,-0.0017,-0.0059,-0.0075,-0.0098,-0.0103,-0.0126,-0.0132,-0.0136,-0.015,-0.0151,-0.0156,-0.0157,-0.0157,-0.0158,0,0,0.0158,0.0172,0.017,0.0176,0.0154,0.0144,0.0163,0.018,0.0196,0.0145,0.0149,0.0084,0.0046,0.0022,-0.0025,-0.0061,-0.0074,-0.0088,-0.0091,-0.0076,-0.0106,-0.0136,-0.014,-0.0094,-0.0094,-0.0094,-0.0119,0,0.0202,0.0237,0.0228,0.0244,0.0254,0.0226,0.0243,0.0233,0.0233,0.023,0.0159,0.0137,0.0079,0.0052,0.0013,-0.0043,-0.0073,-0.0064,-0.0125,-0.0127,-0.0133,-0.0141,-0.0106,-0.0128,-0.012,-0.012,-0.012,0,0.0226,0.026,0.0293,0.0305,0.0304,0.03,0.0323,0.0331,0.0324,0.0314,0.028,0.0235,0.0178,0.0116,0.0034,0.0047,-0.0019,-0.0073,-0.0076,-0.0116,-0.0158,-0.0127,-0.0129,-0.0121,-0.0121,-0.0121,-0.0121,0,0.0251,0.029,0.0332,0.0317,0.0331,0.0339,0.0348,0.035,0.0366,0.0362,0.0369,0.0306,0.0266,0.0182,0.0075,0.0056,-0.0012,-0.0059,-0.0144,-0.0146,-0.0135,-0.0137,-0.0113,-0.0113,-0.0113,-0.0112,-0.0112,0,0.0277,0.0292,0.0341,0.0341,0.0378,0.0354,0.0389,0.04,0.041,0.0451,0.0401,0.0425,0.0282,0.0228,0.0117,-0.0001,0.0021,-0.0127,-0.0154,-0.012,-0.012,-0.0131,-0.0133,-0.0113,-0.0113,-0.0113,-0.0113,0,0.0248,0.0289,0.0323,0.0369,0.0381,0.0378,0.0397,0.0437,0.0449,0.0505,0.0503,0.0495,0.0452,0.032,0.0189,0.0056,-0.0062,-0.0109,-0.0055,-0.0076,-0.0194,-0.0193,-0.0217,-0.0219,-0.022,-0.0221,-0.0221,0,0.0243,0.027,0.0328,0.0359,0.0372,0.0388,0.0425,0.044,0.0497,0.0574,0.0616,0.0592,0.0633,0.0428,0.02,0.0007,-0.003,-0.0132,-0.0183,-0.0181,-0.0204,-0.0202,-0.02,-0.0147,-0.0147,-0.0147,-0.0147,0,0.025,0.0262,0.0302,0.038,0.0418,0.0462,0.052,0.0574,0.0641,0.0739,0.0882,0.0919,0.0724,0.0551,0.0238,0.0093,-0.0105,-0.0143,-0.0138,-0.0134,-0.0119,-0.0141,-0.014,-0.0148,-0.0148,-0.0148,-0.0148,-0.0148,0.0263,0.0286,0.0369,0.0426,0.048,0.0579,0.0663,0.0775,0.0921,0.1088,0.1073,0.1126,0.0856,0.0481,0.0228,-0.0082,-0.0086,-0.0213,-0.0211,-0.0209,-0.0204,-0.0193,-0.0233,-0.0234,-0.0234,-0.0235,-0.0235,0,0.0328,0.0364,0.043,0.0536,0.0633,0.0626,0.0778,0.0917,0.117,0.1217,0.1339,0.1104,0.0876,0.056,0.0113,-0.0159,-0.0174,-0.0249,-0.0202,-0.02,-0.0198,-0.0192,-0.0219,-0.022,-0.0221,-0.0221,0,0,0.0376,0.0462,0.0503,0.0689,0.0754,0.092,0.1029,0.1238,0.1329,0.1442,0.1406,0.1309,0.0935,0.061,0.027,0.0027,-0.0032,-0.0027,-0.0012,0.0087,0.0092,-0.015,-0.0135,0,0,0,0,0]}],[{"header":{"parameterUnit":"m.s-1","parameterCategory":2,"la1":30.2991,"la2":30.254,"lo1":-89.0895,"lo2":-89.0444,"dy":0.0017,"dx":0.0017,"nx":28,"ny":28,"refTime":"2023-05-26T21:00:00:Z","depth":"4","parameterNumber":2,"parameterNumberName":"U-component_of_CURRENTS"},"data":[0,0,0,0,0,0,0,0,0,0,0,0,0,0,0,0,0,0,0,0,0,0,0,0,0,0,0,0,0,0,0,0,0,0,0,0,0,0,0,0,0,0,0,0,0,0,0,0,0,0,0,0,0,0,0,0,0,0,0.1109,0.1109,0,0.1158,0.1158,0.1159,0.12,0.1201,0.1201,0.1202,0.1231,0.1232,0.1232,0,0,0,0,0,0,0,0,0,0,0,0,0,0.1024,0.1025,0.1109,0.1109,0.111,0.1158,0.1158,0.1159,0.12,0.1201,0.1201,0.1202,0.1231,0.1232,0.1232,0,0,0,0,0,0,0,0,0,0,0,0,0,0.1064,0.1025,0.1108,0.1138,0.1141,0.1158,0.1158,0.1159,0.12,0.1201,0.1202,0.1202,0.1231,0.1232,0.1232,0.1215,0,0,0.1233,0.1233,0,0,0,0,0,0,0,0,0.1061,0.1067,0.1133,0.1136,0.1139,0.1175,0.1139,0.1178,0.1199,0.1175,0.1202,0.1203,0.1211,0.1213,0.1218,0.1217,0.1218,0.1233,0.1233,0.1233,0.1233,0,0,0,0,0,0,0,0.1059,0.1065,0.1126,0.1133,0.1138,0.114,0.1146,0.1147,0.1186,0.1178,0.1181,0.1189,0.1213,0.1218,0.1219,0.1219,0.1233,0.1233,0.1233,0.1233,0.1291,0.1292,0,0,0,0,0,0,0.1057,0.1062,0.1125,0.1128,0.1104,0.1141,0.1148,0.1161,0.1186,0.1192,0.1188,0.1191,0.1217,0.1219,0.122,0.1275,0.1233,0.1234,0.1234,0.129,0.1291,0.1293,0,0,0,0,0,0,0.1055,0.1062,0.1123,0.1097,0.1105,0.1141,0.1156,0.1162,0.1198,0.1195,0.12,0.1222,0.1218,0.122,0.1245,0.1274,0.1234,0.1234,0.1288,0.129,0.1292,0.1339,0,0,0,0,0,0,0.1052,0.1061,0.1078,0.1097,0.1107,0.1144,0.1155,0.1162,0.1201,0.1205,0.1225,0.1227,0.1219,0.1245,0.1245,0.1274,0.1234,0.1287,0.1289,0.1292,0.1335,0.1342,0.1347,0,0,0,0,0,0.1049,0.1062,0.1079,0.1087,0.1127,0.1144,0.1149,0.1176,0.1202,0.1214,0.1235,0.1228,0.1262,0.1246,0.1246,0.1276,0.1285,0.1288,0.1291,0.1333,0.1341,0.1347,0,0,0,0,0,0,0.104,0.1069,0.1087,0.1112,0.1134,0.1152,0.1172,0.1194,0.1221,0.1239,0.1238,0.1241,0.1272,0.1269,0.1252,0.1301,0.1275,0.1278,0.1306,0.1314,0.132,0.1336,0.1234,0,0,0,0,0,0.1045,0.1061,0.1089,0.1111,0.1127,0.1158,0.1175,0.1197,0.1219,0.1235,0.1251,0.127,0.1279,0.1295,0.1297,0.1323,0.1337,0.1346,0.1352,0.1357,0.1371,0.1403,0.1413,0.1303,0.1303,0.1303,0,0,0.1044,0.1067,0.1075,0.111,0.1135,0.1156,0.1171,0.1207,0.1233,0.1231,0.1279,0.1288,0.1289,0.1316,0.1332,0.1323,0.14,0.1361,0.1365,0.1377,0.1407,0.1418,0.1427,0.1305,0.1304,0.1304,0,0,0.1034,0.1079,0.1081,0.1107,0.115,0.1174,0.1193,0.1232,0.1262,0.1294,0.1307,0.1339,0.1353,0.1368,0.1372,0.1416,0.1425,0.1424,0.1475,0.1506,0.1515,0.1523,0.1573,0.1586,0.1435,0.1435,0.1435,0,0.1035,0.1048,0.1085,0.1101,0.1138,0.1187,0.1213,0.124,0.1285,0.1319,0.1315,0.1375,0.1374,0.1421,0.1439,0.143,0.1458,0.1444,0.1514,0.1522,0.153,0.1579,0.1592,0.1437,0.1437,0.1437,0.1437,0,0.103,0.1045,0.1057,0.1099,0.1146,0.1176,0.1232,0.1286,0.1333,0.1356,0.142,0.1427,0.1471,0.1474,0.1467,0.1534,0.1541,0.151,0.1494,0.1544,0.1592,0.1605,0.1441,0.144,0.1439,0.1439,0,0,0.1007,0.1042,0.105,0.1064,0.1157,0.1185,0.1266,0.1337,0.1387,0.1433,0.1491,0.1522,0.1552,0.1561,0.1572,0.1601,0.1678,0.1591,0.1591,0.164,0.1774,0.1637,0.1637,0.1662,0.1664,0.1666,0.1793,0,0.0991,0.1018,0.1054,0.1089,0.1113,0.1208,0.1287,0.137,0.1418,0.1479,0.1526,0.1564,0.1576,0.1603,0.1644,0.1672,0.1712,0.1648,0.172,0.1723,0.1592,0.1646,0.1672,0.1802,0.1805,0.1807,0.1809,0,0.0959,0.0997,0.1032,0.1103,0.1131,0.1157,0.1307,0.1387,0.1496,0.1545,0.1615,0.163,0.1724,0.1686,0.1807,0.1774,0.1787,0.1794,0.1798,0.1661,0.1607,0.1738,0.1832,0.183,0.1828,0.1827,0.1825,0,0.0911,0.0962,0.0998,0.1025,0.1133,0.117,0.1255,0.1392,0.148,0.1577,0.1635,0.1724,0.178,0.1833,0.1876,0.1855,0.1969,0.1933,0.1826,0.1819,0.1884,0.1874,0.1986,0.1986,0.1986,0.1985,0.1985,0,0.085,0.0864,0.0958,0.0959,0.1044,0.1147,0.1236,0.1337,0.1479,0.1563,0.1666,0.1716,0.1814,0.188,0.1911,0.1927,0.2014,0.1853,0.1839,0.1904,0.1894,0.1895,0.1882,0.199,0.1989,0.1988,0.1987,0,0.0749,0.0802,0.0834,0.0948,0.099,0.1057,0.1217,0.127,0.1454,0.156,0.1603,0.1744,0.1837,0.1917,0.1987,0.1956,0.1978,0.1943,0.2042,0.2029,0.1807,0.1797,0.1864,0.186,0.1857,0.1854,0.1852,0,0.0695,0.0707,0.0824,0.085,0.0867,0.0985,0.1059,0.1239,0.1297,0.155,0.157,0.1703,0.1775,0.1828,0.1896,0.1964,0.1919,0.1937,0.1842,0.1814,0.1795,0.1789,0.1782,0.1846,0.1846,0.1845,0.1844,0,0.0616,0.0659,0.0698,0.0776,0.0799,0.0888,0.0978,0.1024,0.1247,0.1398,0.151,0.1576,0.1665,0.1732,0.1789,0.182,0.1937,0.1902,0.1908,0.1819,0.1794,0.1776,0.1774,0.1833,0.1834,0.1835,0.1836,0,0.0568,0.0586,0.0641,0.0701,0.075,0.0773,0.0839,0.0922,0.1045,0.1307,0.1314,0.1496,0.1618,0.1655,0.1709,0.1737,0.1706,0.1654,0.1673,0.1686,0.1564,0.1502,0.1453,0,0,0,0,0,0.0518,0.0525,0.0571,0.0609,0.0655,0.0691,0.0794,0.087,0.1045,0.1081,0.122,0.13,0.1409,0.1492,0.1486,0.1607,0.1693,0.159,0.1636,0.1769,0.1783,0.1651,0,0,0,0,0,0,0.0468,0.0496,0.0538,0.054,0.0554,0.0591,0.0648,0.0753,0.0809,0.0996,0.1062,0.1211,0.1328,0.1402,0.1459,0.1483,0.1484,0.17,0.1696,0.1762,0.1774,0.1784,0.1654,0,0,0,0,0]},{"header":{"parameterUnit":"m.s-1","parameterCategory":2,"la1":30.2991,"la2":30.254,"lo1":-89.0895,"lo2":-89.0444,"dy":0.0017,"dx":0.0017,"nx":28,"ny":28,"refTime":"2023-05-26T21:00:00:Z","depth":"4","parameterNumber":3,"parameterNumberName":"V-component_of_CURRENTS"},"data":[0,0,0,0,0,0,0,0,0,0,0,0,0,0,0,0,0,0,0,0,0,0,0,0,0,0,0,0,0,0,0,0,0,0,0,0,0,0,0,0,0,0,0,0,0,0,0,0,0,0,0,0,0,0,0,0,0,0,0.0184,0.0184,0,0.0176,0.0176,0.0176,0.018,0.018,0.018,0.018,0.0214,0.0215,0.0216,0,0,0,0,0,0,0,0,0,0,0,0,0,0.0193,0.0193,0.0184,0.0184,0.0184,0.0176,0.0176,0.0176,0.018,0.018,0.018,0.018,0.0214,0.0215,0.0216,0,0,0,0,0,0,0,0,0,0,0,0,0,0.0189,0.0193,0.0184,0.0184,0.0183,0.0176,0.0176,0.0176,0.018,0.018,0.018,0.018,0.0214,0.0215,0.0216,0.0223,0,0,0.022,0.0221,0,0,0,0,0,0,0,0,0.019,0.0189,0.0184,0.0184,0.0183,0.0178,0.0192,0.0193,0.018,0.0183,0.018,0.018,0.0205,0.0207,0.0207,0.0224,0.0226,0.022,0.0221,0.0222,0.0222,0,0,0,0,0,0,0,0.019,0.0189,0.0183,0.0184,0.0183,0.018,0.018,0.0192,0.0196,0.0183,0.0182,0.0179,0.0205,0.0206,0.0208,0.0226,0.022,0.0221,0.0222,0.0223,0.0305,0.0306,0,0,0,0,0,0,0.0188,0.019,0.0183,0.0182,0.0185,0.018,0.018,0.0181,0.0194,0.0196,0.0179,0.0179,0.0203,0.0206,0.0209,0.0249,0.0222,0.0223,0.0224,0.0304,0.0305,0.0307,0,0,0,0,0,0,0.0188,0.0188,0.0183,0.0184,0.0183,0.018,0.0181,0.0181,0.0185,0.0191,0.0194,0.0184,0.0204,0.0207,0.0236,0.0249,0.0224,0.0225,0.0302,0.0304,0.0306,0.0308,0,0,0,0,0,0,0.0189,0.0188,0.0192,0.0184,0.0183,0.019,0.018,0.018,0.0182,0.0182,0.0196,0.0199,0.0204,0.0235,0.0238,0.025,0.0226,0.03,0.0303,0.0305,0.0306,0.031,0.0313,0,0,0,0,0,0.0189,0.02,0.0193,0.0192,0.0188,0.0191,0.0191,0.0189,0.0182,0.0192,0.0205,0.0199,0.0254,0.0237,0.024,0.0253,0.0299,0.0302,0.0305,0.0305,0.0309,0.0313,0,0,0,0,0,0,0.0202,0.0201,0.0193,0.0201,0.0198,0.0191,0.02,0.0191,0.0206,0.0208,0.0213,0.0218,0.0251,0.0256,0.0237,0.0288,0.0277,0.0281,0.0275,0.028,0.0283,0.0269,0.0227,0,0,0,0,0,0.0206,0.0218,0.0208,0.0214,0.0216,0.0207,0.0207,0.0201,0.0208,0.0214,0.0226,0.0244,0.0266,0.0275,0.0298,0.0319,0.0287,0.0334,0.0337,0.034,0.0334,0.0292,0.029,0.0317,0.0317,0.0317,0,0,0.021,0.0213,0.0217,0.0219,0.0218,0.0231,0.0209,0.0212,0.0225,0.0216,0.0251,0.0259,0.0278,0.0307,0.0322,0.0311,0.0317,0.0344,0.0346,0.0338,0.0295,0.0292,0.0289,0.0319,0.0319,0.0319,0,0,0.0236,0.023,0.0253,0.026,0.0259,0.0248,0.025,0.0247,0.0253,0.0276,0.0278,0.0286,0.0328,0.0331,0.0341,0.0377,0.034,0.0396,0.0393,0.0353,0.0349,0.0345,0.0294,0.0286,0.0391,0.0391,0.0391,0,0.0243,0.027,0.0259,0.0288,0.0294,0.026,0.0281,0.0282,0.029,0.0293,0.0295,0.0327,0.0336,0.0354,0.0368,0.038,0.0349,0.037,0.0353,0.0349,0.0345,0.0293,0.0284,0.0392,0.0391,0.0391,0.0391,0,0.0287,0.0314,0.033,0.0353,0.0354,0.0367,0.0357,0.0361,0.0353,0.0346,0.0363,0.0365,0.0378,0.0385,0.0387,0.0376,0.0359,0.0361,0.0331,0.0341,0.0287,0.0277,0.0392,0.0392,0.0392,0.0392,0,0,0.0298,0.0351,0.0362,0.0386,0.0389,0.0394,0.0408,0.0406,0.041,0.0407,0.0415,0.0429,0.0405,0.0414,0.0407,0.0367,0.0308,0.0352,0.0349,0.0281,0.0205,0.0189,0.0176,0.0302,0.0301,0.03,0.0175,0,0.034,0.0411,0.0416,0.0467,0.0497,0.0473,0.0491,0.0479,0.0462,0.0463,0.0434,0.0448,0.0425,0.0428,0.0382,0.0339,0.0284,0.0341,0.0224,0.022,0.0187,0.0165,0.0296,0.0167,0.0165,0.0163,0.0162,0,0.0395,0.0431,0.0496,0.0533,0.0541,0.056,0.0556,0.0564,0.0541,0.0531,0.0504,0.0482,0.0439,0.0419,0.0305,0.0342,0.0272,0.0221,0.0215,0.019,0.0185,0.016,0.0144,0.0145,0.0146,0.0148,0.0149,0,0.0428,0.0492,0.0542,0.056,0.0587,0.0606,0.0609,0.0591,0.0605,0.057,0.057,0.0502,0.0486,0.0381,0.0275,0.0288,0.0135,0.0142,0.0051,0.0048,0.0098,0.0103,0.0043,0.0043,0.0044,0.0044,0.0044,0,0.0483,0.0527,0.0571,0.0604,0.0656,0.065,0.0697,0.0677,0.0668,0.0674,0.0612,0.0595,0.0476,0.0381,0.0269,0.0123,0.0124,0.0034,0.0012,0.0104,0.0111,0.009,0.0097,0.0039,0.004,0.0041,0.0042,0,0.0521,0.0557,0.0619,0.0662,0.0687,0.0719,0.0778,0.0794,0.0773,0.0774,0.0768,0.067,0.0533,0.0393,0.0219,0.013,-0.0015,-0.0069,0.0023,0.001,-0.0077,-0.0068,-0.0188,-0.0189,-0.0191,-0.0192,-0.0193,0,0.0549,0.0589,0.0667,0.0709,0.0739,0.0805,0.0847,0.0855,0.0863,0.0811,0.08,0.0684,0.0601,0.0339,0.0185,-0.005,-0.0072,-0.0151,-0.0107,-0.0093,-0.0103,-0.0091,-0.0081,-0.0195,-0.0196,-0.0196,-0.0196,0,0.0583,0.0613,0.0654,0.0748,0.0813,0.0889,0.0941,0.0959,0.0937,0.0934,0.0826,0.0686,0.0527,0.0329,0.0148,-0.0017,-0.0101,-0.0167,-0.0164,-0.0123,-0.0103,-0.0109,-0.0097,-0.0201,-0.0201,-0.02,-0.02,0,0.0601,0.0633,0.0695,0.0769,0.0851,0.0913,0.0962,0.0962,0.0975,0.09,0.0863,0.0684,0.0589,0.0343,0.0169,0.0009,-0.0023,-0.0061,-0.0065,-0.0061,0.0019,0.0065,-0.0016,0,0,0,0,0,0.0607,0.0642,0.0711,0.0789,0.0862,0.0916,0.0981,0.1009,0.1004,0.0932,0.0896,0.0738,0.0474,0.0362,0.0199,0.0142,-0.0051,-0.0056,-0.0097,-0.0229,-0.0223,-0.0152,0,0,0,0,0,0,0.0618,0.0675,0.0704,0.0779,0.083,0.0917,0.0962,0.0966,0.0931,0.0899,0.0767,0.0697,0.045,0.0565,0.0193,0.0144,0.0095,-0.0175,-0.0178,-0.0232,-0.0227,-0.0223,-0.0147,0,0,0,0,0]}]]